Theta_e
297 296 295 294 293 292 292 291 290 290 290 289 289 289 289 289 289 289 289 288 288 288 288 288 288 288 287 287 286 286 286 286 285 285 285 286 286 285 285 285 285 285 284 284 283 282 282 282 281 280 280 279 279 279 279 279 279 279 280 280 280 280 280 280 280 281 281 282 282 283 283 284 284 285 286 287 287 288 289 289 291 292 292 293 294
298 296 295 294 293 292 292 291 290 290 289 289 289 289 289 289 289 289 288 288 288 288 288 288 287 287 287 286 286 286 285 285 285 285 285 285 285 285 285 284 284 284 284 283 283 282 281 281 281 280 278 277 277 277 277 278 278 278 278 278 278 278 278 278 279 280 281 281 281 282 282 282 282 283 284 285 285 286 287 288 289 290 291 292 294
298 297 295 294 293 292 291 291 290 289 289 289 289 289 289 289 288 289 288 288 288 288 288 287 287 287 286 286 286 285 285 285 285 285 285 285 284 284 284 284 284 284 283 283 282 281 281 280 280 279 277 276 276 276 276 276 276 276 276 276 277 276 277 277 278 279 280 280 280 281 281 281 281 281 281 282 283 284 286 286 287 288 289 291 293
298 296 295 294 292 292 291 290 289 289 289 289 289 288 288 288 288 288 288 288 288 288 287 287 287 286 286 286 285 285 285 285 285 285 284 284 284 284 284 284 283 283 283 283 282 281 280 279 278 276 275 274 274 274 273 273 273 274 274 275 275 275 276 276 276 277 278 279 279 279 279 279 279 279 280 281 281 282 284 285 286 288 289 290 291
298 296 295 293 292 291 291 290 289 289 289 289 288 288 288 288 288 288 288 288 288 287 287 287 286 286 286 285 285 284 284 284 284 284 284 284 284 284 283 283 283 283 283 283 281 280 278 278 276 274 273 273 273 273 272 272 272 272 273 274 274 274 275 275 276 277 278 278 278 278 278 278 278 279 280 280 280 282 283 285 286 288 290 290 290
298 296 294 293 292 291 290 290 289 288 288 288 288 288 288 288 288 288 288 288 288 287 287 287 286 286 285 285 285 284 284 284 284 284 284 283 283 283 283 283 283 283 282 282 281 279 277 276 275 274 273 273 273 272 272 272 272 272 272 273 273 273 274 274 275 276 277 277 278 278 278 278 277 278 280 280 281 283 284 286 288 289 291 291 292
297 295 294 292 291 291 290 289 288 288 288 288 288 288 288 288 288 288 288 288 287 287 287 286 286 285 285 285 284 284 284 283 283 283 283 283 283 283 283 283 283 283 282 282 281 279 277 276 275 274 273 273 272 272 272 272 272 272 272 272 273 273 273 274 274 275 276 277 277 277 277 277 277 278 279 280 282 283 285 286 288 290 291 292 294
297 295 293 291 291 290 290 289 288 288 288 288 288 288 288 288 288 288 288 287 287 287 286 286 285 285 285 284 284 284 283 283 283 283 283 283 282 282 282 283 283 283 282 280 279 277 276 274 274 273 273 273 273 272 272 272 272 272 272 273 273 273 274 274 274 275 276 276 277 277 277 277 278 278 279 280 282 284 285 286 288 291 293 294 295
295 294 292 291 290 290 289 288 288 288 288 288 288 288 288 288 288 288 287 287 287 286 286 285 285 284 284 284 284 283 283 283 283 283 282 282 282 282 282 283 283 282 280 278 277 275 274 274 273 273 273 273 273 273 273 273 273 273 273 273 274 274 274 274 275 275 275 276 276 277 277 277 278 278 279 281 282 284 286 287 288 291 294 295 296
295 293 292 290 290 290 289 288 288 288 288 288 288 288 288 288 288 288 287 287 286 286 285 285 284 284 284 284 283 283 283 283 282 282 282 281 281 281 282 282 281 280 278 277 276 275 274 273 273 273 273 273 273 274 274 274 274 274 274 274 275 275 275 275 275 275 275 276 276 276 277 277 277 278 279 280 281 283 284 285 286 288 292 295 295
294 293 291 290 290 289 289 288 287 288 288 288 288 288 288 288 288 287 287 287 286 286 285 285 284 284 284 283 283 283 282 282 282 281 281 281 281 281 281 280 279 278 276 275 275 274 274 273 273 273 273 273 273 274 274 274 275 275 275 276 276 276 276 276 276 276 276 276 277 276 277 277 278 278 279 279 281 282 283 285 285 286 290 294 294
293 292 290 290 289 289 289 288 287 287 288 288 288 288 288 288 287 287 287 286 286 285 285 284 284 284 283 283 282 282 282 282 281 281 281 281 281 280 280 279 277 276 275 274 274 274 274 273 273 273 273 273 273 274 274 274 274 275 275 276 276 277 277 277 277 278 277 277 278 278 278 278 279 279 279 280 281 282 283 284 285 286 288 292 293
292 291 290 289 289 289 288 287 287 287 287 288 288 288 288 288 287 287 286 286 286 285 285 284 284 283 283 282 282 282 281 281 281 280 280 280 280 280 279 277 276 275 275 274 274 273 273 273 273 274 274 274 274 274 274 274 274 275 275 276 276 277 277 278 278 278 278 278 279 279 279 279 280 280 280 280 281 281 282 282 284 285 286 288 290
291 290 289 289 289 288 287 287 287 287 287 288 288 288 288 287 287 287 286 286 285 285 284 284 283 283 282 282 282 281 281 280 280 280 280 280 280 279 278 277 275 275 274 274 274 274 274 274 274 274 274 274 274 274 274 274 274 274 274 275 275 276 277 277 278 278 278 278 279 279 279 279 280 280 280 280 280 280 281 281 282 283 284 286 288
291 289 289 289 288 288 287 287 287 287 287 288 288 288 287 287 287 286 286 285 285 284 283 283 283 283 282 281 281 281 280 280 280 280 280 280 280 279 278 277 276 275 274 274 274 274 274 274 274 274 274 274 274 274 274 274 274 274 274 275 275 275 276 276 277 278 278 278 278 278 278 278 279 279 279 279 280 280 280 281 281 282 283 285 287
290 289 288 288 288 287 287 287 287 287 287 288 288 287 287 286 286 286 285 285 284 283 283 283 283 282 282 281 281 280 280 280 280 280 280 279 279 279 279 277 276 275 274 274 274 274 274 274 275 275 275 275 275 275 275 275 275 275 275 275 275 275 276 276 277 278 278 278 278 278 279 279 279 279 279 280 280 280 280 280 282 283 285 286 287
290 289 288 288 287 287 287 287 287 287 288 288 287 287 286 286 286 285 285 284 283 283 283 283 282 282 281 281 280 280 280 279 279 279 279 279 279 279 278 276 275 274 274 274 274 275 275 275 275 275 275 275 275 275 276 276 276 275 275 275 275 275 275 276 276 277 278 278 278 279 280 280 280 281 281 281 281 281 281 281 282 284 285 287 288
290 289 288 288 287 287 287 287 287 287 287 287 287 286 286 285 285 284 284 283 283 282 282 282 282 281 281 280 280 279 279 279 279 279 279 278 278 278 276 275 275 275 274 274 275 275 275 276 276 275 275 275 275 276 276 276 276 276 276 276 276 276 276 276 277 277 278 279 279 280 280 281 281 281 281 282 282 282 282 282 282 283 285 287 288
290 289 288 287 287 287 287 287 287 287 287 287 286 286 285 284 284 284 283 283 282 282 282 282 281 281 280 280 279 279 279 279 278 278 278 278 277 276 274 274 274 274 274 275 275 276 276 276 275 275 275 275 275 275 275 275 275 275 275 276 276 276 276 277 277 278 278 279 279 280 280 280 280 281 281 281 282 282 281 282 282 283 285 287 288
289 288 287 287 286 287 287 287 287 287 287 287 286 285 284 284 283 283 282 282 281 282 282 281 281 280 280 279 279 278 278 278 278 278 278 278 276 274 273 274 274 274 275 275 275 276 275 275 274 274 274 274 275 275 275 275 275 275 275 276 276 276 276 276 277 277 278 278 278 279 279 280 280 281 281 281 282 282 282 282 283 284 285 287 288
289 287 287 287 286 287 287 287 287 287 287 286 286 285 284 283 282 282 281 281 281 281 281 281 280 280 279 279 278 278 278 278 278 278 278 277 275 274 273 274 274 275 275 275 275 275 275 274 274 273 273 274 274 275 275 275 275 275 275 276 276 276 276 277 277 277 278 278 279 279 279 280 280 281 281 282 282 283 283 283 284 285 286 288 288
288 287 287 286 286 287 287 287 287 287 287 286 285 284 283 282 282 281 280 280 280 280 280 280 280 279 279 278 278 278 278 277 277 277 277 276 274 274 274 274 275 275 275 275 275 274 274 273 272 272 273 274 274 274 274 274 275 275 275 276 277 277 278 278 278 278 278 278 279 279 279 280 281 281 282 283 283 284 284 284 285 286 288 289 290
288 287 287 286 286 287 287 287 287 287 287 286 285 283 282 281 281 280 280 280 279 279 279 279 279 279 278 278 278 278 277 277 277 277 276 275 273 273 274 275 275 275 274 274 273 273 272 272 272 273 273 273 273 273 273 273 274 274 274 275 277 278 278 278 278 278 278 279 279 280 280 281 281 282 283 284 284 284 284 285 286 288 289 290 290
287 287 286 286 286 287 287 287 287 287 286 285 284 282 281 281 280 280 279 279 279 278 279 279 279 278 278 278 278 277 277 277 277 276 275 274 273 273 274 274 274 274 273 273 272 272 272 272 272 273 273 272 272 272 272 273 273 273 274 275 276 278 279 279 279 279 279 280 280 280 281 281 282 283 284 284 285 285 285 285 286 288 289 290 290
287 287 286 286 286 287 287 287 287 286 286 284 283 281 281 280 280 279 279 278 278 278 278 278 278 278 278 278 277 277 276 276 275 275 274 273 273 273 273 273 273 273 272 272 271 271 272 272 272 272 272 272 272 271 272 272 273 273 274 274 276 277 278 278 279 279 279 280 280 281 281 281 282 283 284 285 285 285 286 286 286 287 289 289 290
286 286 286 286 287 287 287 287 286 286 284 283 282 281 280 280 279 278 278 277 277 277 278 278 278 278 277 277 276 276 275 275 274 273 273 272 272 272 272 272 273 272 272 271 271 271 271 272 272 272 272 272 271 271 272 272 272 273 274 274 275 276 277 278 278 279 279 280 280 281 282 282 283 283 284 285 286 286 286 287 287 288 289 289 289
286 286 286 286 287 287 287 286 286 285 283 282 280 280 279 279 278 277 277 277 277 277 278 278 278 277 277 276 275 275 274 273 273 273 272 272 272 272 272 272 272 272 271 270 271 271 272 272 272 272 272 271 271 271 271 271 272 272 273 273 274 275 275 276 277 278 278 279 279 280 282 283 283 284 285 285 286 286 287 287 288 288 289 289 289
286 286 286 287 287 287 286 286 285 284 282 281 280 279 279 278 277 277 277 277 277 277 278 278 277 276 275 275 274 273 273 273 273 272 272 272 272 272 271 271 272 272 271 270 271 271 272 273 273 272 272 271 270 270 270 270 271 271 271 271 272 273 273 274 275 276 277 277 278 280 281 283 284 285 285 286 286 286 287 287 288 288 289 289 289
286 286 286 287 287 286 286 286 285 283 281 280 279 278 278 277 277 277 276 276 276 277 278 277 276 275 274 274 273 272 272 272 272 272 272 272 272 271 271 271 272 272 271 271 271 272 273 273 272 271 271 270 269 269 269 269 270 270 270 271 271 272 272 273 273 274 275 275 277 280 282 283 284 285 286 287 287 287 287 288 288 289 289 289 290
286 286 286 287 286 286 286 285 283 282 280 279 279 278 277 276 276 276 276 276 276 277 277 276 274 274 273 273 273 272 272 272 272 272 272 273 272 272 272 272 272 272 271 272 272 272 272 272 271 270 269 269 269 269 269 269 269 269 270 270 270 271 271 271 272 272 273 274 275 278 280 281 283 284 285 287 287 287 288 288 288 288 289 290 290
286 286 286 286 286 286 286 284 282 280 279 279 278 278 277 276 276 276 276 275 275 276 275 274 274 273 273 273 273 273 273 273 273 273 273 273 273 272 272 272 272 272 271 272 272 272 271 271 270 269 269 269 269 268 269 269 269 269 270 270 270 270 270 271 271 271 272 273 274 275 277 278 280 281 283 285 287 288 288 288 288 288 289 290 290
286 286 286 286 286 286 285 283 281 280 279 279 278 277 276 276 276 276 275 275 275 275 274 274 273 273 273 273 273 273 273 273 273 272 272 272 272 272 272 272 272 272 272 272 272 271 271 270 269 269 268 268 268 268 269 269 269 269 270 270 270 270 270 270 271 271 271 272 273 273 274 275 277 279 281 283 285 287 288 289 289 289 289 290 290
286 286 286 286 286 285 284 282 281 280 279 279 278 276 276 276 276 276 275 275 274 274 274 273 273 273 273 273 273 273 273 273 272 272 272 272 273 273 272 272 272 272 272 272 271 271 270 270 269 269 268 268 268 268 269 269 269 269 269 269 270 270 270 271 271 271 271 272 272 272 273 273 274 277 280 282 283 285 287 288 289 290 290 290 291
286 286 286 287 286 285 283 281 281 280 279 278 277 276 276 276 275 275 275 274 274 274 273 273 272 272 273 273 273 273 273 272 272 272 272 272 272 272 272 272 272 272 271 271 271 270 269 269 269 268 268 268 268 268 269 269 269 269 269 270 270 270 270 271 271 271 271 271 271 271 272 272 273 275 277 280 281 283 285 287 289 290 291 291 291
286 286 287 287 286 285 283 281 280 279 278 277 276 275 275 275 274 274 273 273 273 273 272 272 272 272 273 273 273 272 272 272 272 272 272 272 272 272 272 273 272 272 271 271 270 269 269 269 268 268 268 268 268 268 269 269 269 269 269 270 270 270 270 271 271 271 271 271 270 270 270 271 272 273 275 277 280 282 285 287 288 289 291 291 291
286 287 286 285 284 283 281 280 279 278 277 276 275 275 274 274 274 273 273 273 273 272 272 272 272 273 273 273 272 271 271 272 272 271 271 271 271 271 272 272 271 270 270 270 270 269 269 269 268 269 269 268 269 269 269 269 269 269 269 270 270 270 270 270 271 271 271 270 270 270 270 270 271 273 274 276 279 281 284 286 287 288 290 291 292
286 286 285 283 282 280 279 278 277 277 276 275 275 274 274 274 274 274 274 274 273 273 272 272 272 272 272 272 272 271 272 272 271 270 270 271 271 271 271 270 269 269 269 269 269 269 269 269 269 269 269 269 269 269 269 269 269 269 269 270 270 270 270 271 271 271 270 270 270 270 270 270 271 272 273 275 278 281 284 285 286 287 289 291 292
286 286 285 283 281 279 278 277 276 276 275 274 274 274 274 274 274 274 274 274 273 272 272 272 271 272 272 272 272 272 272 272 271 271 271 271 271 271 270 269 269 269 269 269 269 269 269 269 269 269 269 269 269 269 269 269 269 269 269 270 270 270 270 271 271 270 270 270 270 270 270 270 271 272 273 274 277 281 284 286 287 288 289 291 292
285 284 283 281 279 278 278 277 276 275 275 274 274 274 274 274 274 273 273 273 273 272 272 272 272 272 272 272 272 272 272 272 272 272 271 271 270 270 269 269 269 268 268 268 268 269 269 269 269 269 269 269 269 269 269 269 269 269 269 270 270 270 270 271 270 270 270 269 269 269 269 270 272 273 274 275 278 281 284 286 288 289 290 291 293
284 283 281 279 278 278 277 277 276 275 274 274 274 274 274 274 273 273 273 272 272 271 271 271 271 271 271 271 271 271 272 272 272 271 271 270 270 269 269 268 268 268 268 268 268 268 268 269 269 269 269 269 269 269 269 269 269 269 269 269 270 270 270 270 270 270 269 269 269 269 269 270 272 273 274 276 278 281 284 286 288 290 291 292 294
284 281 279 278 278 276 276 275 275 275 274 274 273 273 273 273 273 272 272 271 271 270 270 271 271 271 271 271 271 271 271 271 271 270 270 270 269 269 268 268 268 268 268 268 268 268 268 268 268 268 269 269 269 269 269 269 269 269 269 270 270 270 270 270 270 270 269 269 268 268 269 270 271 273 274 276 278 281 284 286 288 290 292 294 295
283 281 279 277 276 275 275 274 274 274 273 273 273 273 273 272 272 272 271 271 270 270 270 270 270 270 270 270 270 270 270 270 270 270 270 269 269 269 268 268 268 268 268 268 268 268 268 268 268 268 268 269 269 269 269 269 269 270 270 270 270 270 270 270 270 270 269 269 268 268 269 270 271 273 274 276 278 281 284 287 289 291 293 295 296
283 281 279 277 276 275 275 274 274 273 273 273 273 272 272 272 272 271 271 270 270 270 270 270 270 270 270 270 270 270 270 270 270 270 270 269 269 269 269 268 268 268 268 267 267 267 267 268 268 268 268 269 269 269 269 269 269 269 270 270 270 270 270 270 270 270 269 269 268 268 268 269 271 273 275 276 279 282 285 288 290 292 294 295 297
282 280 277 276 275 274 274 274 273 273 273 272 272 272 272 271 271 270 270 270 269 269 270 270 270 270 270 270 270 270 270 270 270 270 270 269 269 269 269 269 268 268 268 268 267 267 267 267 268 268 268 269 269 269 269 269 269 269 269 270 270 270 270 270 270 270 269 269 268 269 269 269 271 273 275 277 280 283 286 289 291 293 294 295 297
281 278 276 275 274 274 273 273 273 272 272 272 272 271 271 271 270 270 269 269 269 269 269 270 270 270 270 270 270 270 270 270 270 270 270 270 269 269 269 269 269 268 268 268 268 268 267 267 267 268 268 269 269 269 269 269 269 269 269 270 270 270 270 270 269 270 270 269 268 269 269 269 270 273 275 278 280 283 286 289 291 292 294 295 297
279 277 276 275 274 273 273 273 272 272 272 272 272 271 271 270 270 270 269 269 269 269 269 269 270 270 270 270 270 271 271 270 270 270 270 269 269 269 269 269 269 269 268 268 268 268 268 267 267 268 268 268 269 270 269 269 269 269 269 270 270 270 270 269 269 270 270 270 269 269 269 269 270 273 276 278 281 283 286 289 291 292 293 295 298
277 276 275 275 274 273 273 272 272 272 272 271 271 271 270 270 270 269 269 269 269 269 269 270 270 270 270 270 270 271 270 270 270 270 270 269 269 269 269 269 269 269 269 269 268 268 268 268 268 268 268 268 269 270 269 269 269 269 269 269 270 270 270 269 269 270 271 271 270 269 269 269 270 273 276 279 281 283 286 288 290 292 293 295 297
275 275 274 274 274 273 273 272 272 272 271 271 270 270 270 270 269 269 269 269 269 269 269 270 270 270 270 270 270 270 270 270 270 270 270 270 270 270 270 270 270 270 269 269 269 269 269 268 268 268 268 268 269 269 269 269 269 269 269 269 270 270 270 269 269 270 272 272 271 271 270 270 270 273 276 278 280 282 284 287 289 291 293 295 297
274 274 273 273 273 273 273 273 272 272 271 270 270 270 269 269 269 269 269 269 269 269 269 270 270 270 270 270 270 270 270 270 270 270 270 270 270 270 270 270 270 270 270 269 269 269 269 269 269 268 268 268 269 269 269 269 269 269 269 269 270 270 270 269 269 270 272 272 271 272 272 271 271 273 275 277 279 281 283 285 288 290 293 295 296
273 273 273 273 272 272 272 272 272 271 270 270 270 269 269 269 269 269 269 269 269 269 269 270 270 270 270 270 270 270 269 269 269 270 270 270 270 270 270 270 270 270 270 269 269 269 269 269 269 269 269 269 269 269 269 269 269 269 269 269 269 270 270 270 269 270 271 271 271 272 272 272 272 273 274 276 278 280 281 284 286 289 292 294 295
272 272 272 272 272 272 271 271 271 270 269 269 269 269 269 269 269 269 269 269 269 269 269 269 269 269 269 269 269 269 269 269 269 270 270 270 270 270 270 270 270 270 269 269 269 269 269 269 269 269 269 269 269 269 269 269 269 268 269 269 269 270 270 270 269 270 270 271 271 272 272 272 272 273 274 275 277 278 280 282 285 288 291 293 294
Wind_Speed
52 54 54 54 53 51 48 45 42 39 36 33 31 29 27 25 24 23 23 22 22 23 24 25 26 27 27 27 27 27 27 27 27 27 28 29 30 32 34 35 37 38 39 39 38 38 40 41 43 42 40 40 40 39 41 40 38 39 38 38 42 43 42 44 48 51 50 53 58 54 47 46 49 50 48 46 47 48 49 50 49 48 49 50 52
52 54 55 55 54 51 48 45 42 39 36 34 31 29 27 26 24 23 23 22 22 23 24 25 26 26 26 26 26 26 26 26 26 27 28 29 31 33 34 35 37 38 38 39 38 38 39 41 43 43 41 43 43 40 41 41 39 42 45 42 46 50 46 45 48 49 49 54 58 55 48 46 47 52 58 59 57 56 54 53 52 51 50 50 49
51 53 54 55 54 52 49 46 42 39 36 34 32 30 27 26 24 23 22 22 23 24 25 25 25 26 26 26 26 25 25 26 26 27 28 30 32 33 33 34 36 37 38 38 38 37 38 41 42 43 42 43 45 42 41 44 44 46 51 48 45 49 47 43 45 47 49 55 56 49 43 43 46 54 63 63 60 61 64 63 61 57 53 52 50
51 53 54 55 54 52 49 46 42 39 37 35 32 30 28 25 24 23 21 22 23 24 24 25 25 25 25 25 25 25 25 25 26 27 29 30 32 32 33 35 35 37 38 38 38 38 39 41 41 41 41 42 43 41 39 42 42 40 43 43 41 42 43 42 43 44 47 53 54 46 42 46 54 62 66 63 57 58 61 61 61 59 54 54 55
51 53 55 55 54 52 49 46 43 40 38 35 32 30 27 25 23 22 21 22 24 24 24 24 24 24 24 24 24 24 25 25 26 28 29 30 32 33 34 35 36 37 38 38 38 38 38 41 41 40 41 42 43 42 41 40 37 36 37 39 39 39 40 40 41 41 43 48 51 45 40 43 51 59 60 56 52 50 50 50 50 50 50 51 55
51 53 55 55 54 52 50 47 43 41 38 35 32 29 27 25 23 21 22 23 23 23 23 23 23 23 22 23 23 24 25 25 27 28 30 31 32 34 34 35 37 37 37 37 37 38 39 41 42 41 41 42 43 44 43 39 36 36 36 37 38 39 40 40 39 39 42 45 46 43 41 42 48 54 53 45 42 43 44 45 46 47 47 49 51
51 53 55 55 54 53 50 46 43 41 38 34 31 28 26 24 22 21 22 23 23 22 22 22 22 21 21 22 23 24 24 26 27 29 30 32 33 34 34 35 36 37 38 38 38 39 40 41 42 42 42 43 43 43 43 40 38 38 37 37 38 38 39 40 39 39 40 40 39 38 40 42 43 47 48 41 38 41 44 46 49 49 47 47 49
51 54 55 55 54 53 49 46 43 40 37 34 30 27 25 23 22 22 23 22 21 21 21 21 21 20 21 21 22 24 24 26 28 29 30 32 33 33 34 36 37 37 38 38 39 39 40 41 42 43 43 44 44 43 43 41 39 39 37 36 38 39 38 38 38 38 39 40 40 38 38 40 40 41 43 40 38 42 44 44 47 50 50 48 45
52 54 55 55 55 52 48 46 43 40 37 33 29 27 25 23 22 22 22 21 20 20 20 20 20 19 20 21 22 23 25 26 28 29 30 32 33 34 35 35 36 36 37 37 38 38 39 40 41 41 40 40 40 40 42 42 42 43 42 39 40 42 41 39 39 37 37 38 39 37 37 38 39 39 39 39 41 43 44 42 42 46 44 40 35
52 54 55 55 54 52 49 46 44 40 36 32 29 26 24 23 23 22 21 20 19 19 19 19 18 19 20 21 22 23 25 26 27 28 29 31 32 33 34 34 34 35 36 37 38 38 39 38 38 39 37 37 38 39 41 43 43 46 47 46 45 45 44 44 43 42 43 44 42 43 44 43 43 43 42 42 43 44 47 47 46 46 38 28 27
53 55 55 55 54 52 49 47 43 40 36 32 29 26 24 23 23 22 20 18 18 18 19 18 17 19 20 21 22 24 25 26 27 28 28 29 30 32 33 34 34 34 34 36 37 37 38 37 36 36 35 35 37 38 39 41 42 43 44 45 46 47 46 47 48 48 50 51 47 47 48 47 47 47 45 44 43 43 46 45 45 47 40 28 25
53 55 55 55 54 51 49 46 43 39 35 32 29 26 24 24 23 21 19 18 18 18 17 17 17 19 20 22 23 24 24 25 26 27 27 28 29 30 31 33 33 34 34 35 36 37 38 39 38 36 35 35 36 38 39 41 41 42 43 43 44 46 46 47 49 49 51 50 48 48 46 44 45 45 43 42 41 42 45 45 44 45 41 32 27
53 54 54 54 52 50 49 46 43 39 35 31 28 26 25 24 22 20 18 17 18 17 17 16 17 19 21 22 23 23 24 25 26 26 26 27 28 29 31 32 33 34 35 35 37 38 38 39 40 40 39 37 38 39 40 41 41 41 41 42 42 43 44 45 46 47 48 49 50 51 48 45 45 45 45 44 43 45 49 50 47 46 45 41 36
52 53 53 53 52 50 48 45 42 38 35 31 28 26 25 23 21 19 18 17 18 17 16 16 17 19 21 22 23 23 23 24 25 25 25 27 28 30 31 32 33 34 35 37 38 39 38 39 41 43 43 41 39 39 39 40 42 42 42 42 42 42 43 44 44 45 46 48 51 52 51 50 49 48 48 49 49 49 51 53 52 50 50 49 45
50 51 52 52 51 50 48 45 41 37 34 30 28 27 25 22 20 18 18 17 17 15 15 15 17 19 21 22 24 23 22 22 24 24 25 26 28 31 32 33 34 34 36 38 40 41 41 43 43 44 46 46 43 41 40 40 43 44 45 46 46 45 45 45 46 47 48 49 50 49 50 51 49 46 46 48 49 50 50 52 54 52 51 52 51
49 50 51 51 50 49 47 44 40 37 33 30 28 26 24 21 19 18 18 17 16 14 14 15 17 20 21 22 24 23 21 21 22 23 24 26 29 32 33 33 34 35 37 39 41 42 43 45 44 44 46 46 44 42 41 42 44 46 47 48 48 48 48 47 46 46 46 48 50 51 51 50 47 46 45 45 47 48 46 48 49 46 45 47 48
49 51 51 51 50 48 46 42 39 35 32 29 28 25 22 20 19 18 17 16 15 14 14 15 17 20 21 21 23 23 21 20 21 23 24 26 29 32 33 34 35 37 39 41 43 46 48 47 44 44 46 47 45 42 41 42 45 46 48 49 49 49 49 46 44 45 46 47 50 53 53 50 49 50 49 47 49 49 48 50 51 46 43 43 44
50 52 52 51 49 47 43 40 37 33 30 28 25 22 21 19 18 17 17 15 14 14 14 15 17 20 21 21 21 22 21 19 20 23 25 26 28 29 31 34 37 39 42 44 46 49 50 47 43 42 45 46 44 42 40 41 43 45 46 48 49 50 49 46 45 45 44 44 45 46 47 47 48 49 49 48 49 50 52 56 55 49 46 46 44
51 53 53 51 49 45 41 37 34 31 28 25 22 20 20 18 17 17 16 14 14 14 13 15 17 19 20 20 20 21 21 20 21 22 24 25 25 26 28 33 37 41 45 48 50 50 49 47 44 43 43 42 41 40 38 38 40 43 44 46 49 50 47 45 44 44 41 41 42 43 44 47 47 48 49 49 48 46 50 55 55 51 50 50 46
51 53 53 51 48 44 40 36 32 29 26 23 21 20 18 17 17 16 14 13 13 13 13 15 17 19 19 18 18 19 21 21 21 22 23 24 23 23 26 31 36 42 45 47 50 50 48 47 46 43 40 39 38 39 39 41 43 45 46 48 50 51 48 45 44 44 43 45 46 46 48 49 49 49 50 50 48 45 45 50 52 52 53 53 50
51 53 52 50 47 43 39 35 32 28 25 22 21 20 18 17 17 15 13 13 13 12 12 15 18 18 17 17 17 18 20 21 21 22 23 24 23 23 26 30 35 39 43 45 47 47 48 49 48 44 39 39 40 42 44 46 45 46 47 47 49 49 47 46 46 44 45 46 47 47 49 50 49 49 49 49 49 46 45 47 48 49 52 53 53
51 52 51 49 46 42 39 35 31 28 25 23 21 20 18 17 16 14 13 13 12 11 12 15 17 18 16 16 16 17 18 19 21 22 23 24 23 22 25 29 31 35 39 43 45 46 47 48 47 44 41 42 44 45 45 44 42 41 41 41 43 44 44 45 45 45 45 46 46 47 48 47 48 48 46 46 46 43 44 46 44 43 45 47 50
51 52 51 49 46 42 39 35 31 28 25 23 21 19 18 18 16 14 13 12 10 10 13 15 16 16 15 14 15 16 18 19 20 22 23 24 24 23 25 28 30 32 36 39 43 46 47 46 45 43 43 43 43 41 39 38 36 35 35 36 38 38 38 40 42 44 45 44 43 44 45 45 46 45 43 43 42 40 41 43 41 39 39 40 45
51 52 51 49 47 43 39 36 32 29 26 24 21 20 19 18 15 13 12 10 9 10 12 14 15 14 14 14 14 15 18 20 21 23 24 25 24 24 26 27 29 30 33 36 39 41 42 42 43 42 41 39 36 34 34 32 30 29 30 30 31 31 28 29 34 38 41 43 42 43 44 44 44 43 42 41 40 38 38 40 41 38 37 37 41
53 53 52 50 46 43 39 36 33 29 26 23 21 20 19 17 14 12 11 9 8 10 12 13 13 12 12 14 15 16 19 21 23 24 26 27 25 25 26 28 30 31 33 34 35 35 37 40 40 38 36 33 32 34 34 33 31 29 27 25 24 24 24 24 26 29 34 38 40 42 45 44 42 41 40 39 38 37 37 38 40 39 38 38 39
54 54 53 50 46 43 40 36 32 28 25 23 21 20 18 16 13 11 10 8 8 9 10 11 11 10 11 14 16 18 20 22 23 26 27 27 27 27 28 30 33 34 33 31 31 34 37 38 36 35 34 33 33 35 36 35 34 31 29 27 23 21 21 21 23 25 28 32 35 38 42 43 41 39 38 38 38 38 37 37 38 39 38 37 38
56 56 54 50 47 43 39 35 30 27 25 23 21 20 18 14 12 10 9 8 7 8 9 9 9 9 11 14 16 18 20 21 23 25 26 27 28 28 29 32 34 35 33 32 34 38 38 36 34 34 34 35 36 38 38 38 37 36 35 34 31 27 24 22 22 23 25 27 29 32 35 38 40 40 38 38 39 39 39 39 39 39 38 36 37
57 57 54 50 47 43 38 33 29 27 25 23 21 20 16 13 11 10 8 7 6 7 7 7 8 9 11 14 16 17 19 21 23 24 24 25 26 27 28 31 34 33 32 32 35 37 36 36 35 35 36 38 40 42 43 42 42 40 39 38 37 35 32 28 27 26 26 28 29 29 28 29 33 38 40 40 39 39 39 39 39 40 39 37 38
58 56 53 50 46 41 37 32 29 27 25 23 22 19 16 13 12 10 8 6 6 6 6 6 7 9 11 13 14 16 18 20 20 20 21 22 23 24 26 28 31 30 30 31 35 36 35 36 37 38 40 42 43 45 46 47 46 44 42 41 41 41 37 34 32 31 30 30 31 29 27 26 26 30 34 38 40 39 38 37 37 38 37 37 38
58 56 53 49 45 40 35 32 29 27 25 24 22 19 16 14 13 10 8 6 4 5 4 5 7 9 10 11 12 14 16 17 17 17 19 19 20 21 23 25 27 27 27 30 33 33 34 35 36 39 42 44 45 46 47 49 50 49 47 46 46 45 43 38 34 33 32 32 31 29 28 28 26 26 27 31 36 38 37 37 38 37 37 37 37
60 57 52 48 43 37 34 31 29 28 26 24 22 19 17 15 13 11 8 5 3 2 2 3 4 6 9 10 11 12 13 13 14 15 17 18 19 20 22 24 25 25 25 27 29 31 33 35 37 40 42 44 45 47 48 49 50 51 51 50 49 48 46 41 36 34 33 33 33 32 30 29 28 27 26 27 29 32 34 36 36 36 37 37 38
60 56 51 45 40 36 33 31 30 29 27 25 22 20 18 16 14 12 10 7 4 3 1 0 2 4 6 8 10 11 11 12 13 15 16 17 18 20 21 22 23 24 25 26 28 30 32 35 38 40 43 45 46 47 48 49 51 51 51 51 51 50 48 43 37 35 35 34 34 34 34 33 31 29 27 27 27 29 31 34 36 36 36 37 38
58 53 47 43 39 36 34 32 31 29 27 25 22 20 18 17 14 13 11 9 7 5 4 2 3 3 4 5 7 9 10 11 12 14 15 17 18 20 20 20 21 23 26 28 29 31 33 35 38 40 43 45 47 48 49 50 51 52 51 51 51 51 48 42 39 37 36 34 34 35 34 34 32 29 28 27 27 27 29 32 35 36 36 37 38
54 49 45 41 39 37 35 33 31 29 27 24 21 19 18 16 13 12 11 11 9 8 6 4 4 3 3 4 5 7 8 9 11 12 15 17 18 19 19 19 19 22 25 27 30 32 34 36 38 40 43 45 47 48 49 50 50 51 51 51 51 51 48 44 40 38 37 38 39 39 37 34 32 30 29 28 26 27 28 30 31 34 36 37 38
51 47 43 40 38 36 35 33 31 29 26 24 21 19 17 15 14 13 11 10 9 8 8 7 5 3 2 2 4 5 6 7 9 11 14 16 18 19 19 20 22 25 27 29 30 32 34 36 38 40 42 45 47 48 49 49 50 51 52 52 53 53 51 47 42 39 40 41 42 41 38 35 32 30 29 28 27 27 28 30 31 33 35 37 39
51 46 43 39 36 35 33 32 30 28 26 24 22 21 19 17 16 16 15 13 12 12 12 9 7 4 2 1 3 4 5 6 8 10 13 15 17 19 20 22 25 28 29 30 31 32 33 35 37 39 41 44 46 48 49 49 50 51 52 53 54 54 52 47 42 41 42 43 43 41 41 39 35 31 28 28 27 27 27 29 31 32 33 36 38
51 45 40 37 34 33 32 31 30 28 26 24 24 23 21 20 19 18 17 16 15 14 12 10 7 5 3 2 1 3 5 6 8 10 11 13 15 17 20 23 25 27 29 31 32 33 34 34 36 38 40 43 45 48 49 49 50 51 53 54 55 54 50 44 41 41 43 44 43 42 41 40 37 33 30 29 28 27 27 28 29 31 32 35 38
47 42 39 37 35 34 33 32 31 29 27 26 24 23 21 20 19 18 17 16 15 13 11 9 8 6 5 4 2 1 3 5 6 7 9 12 15 18 20 22 23 26 28 30 32 34 34 34 35 37 39 41 44 47 49 50 50 51 52 54 55 55 51 45 42 44 45 44 44 44 43 41 39 34 30 28 27 26 26 26 27 28 29 33 38
46 43 40 38 36 35 33 32 31 30 28 26 25 23 21 20 19 18 17 15 14 13 11 10 9 8 6 5 4 2 3 5 7 9 12 14 17 18 19 21 22 24 27 29 31 33 34 35 36 37 38 40 43 45 48 49 50 51 52 53 55 56 54 49 46 48 48 46 45 45 44 43 40 35 30 27 26 24 24 25 26 26 26 31 37
47 43 40 38 37 35 34 32 31 29 28 26 24 23 21 20 18 17 16 14 13 12 10 9 9 8 7 6 5 4 5 7 9 11 13 14 15 16 18 20 21 23 25 27 30 32 33 35 36 37 38 40 41 43 46 48 49 51 53 53 54 56 54 51 50 52 51 49 47 46 45 44 41 37 32 28 25 23 23 24 25 25 24 29 36
44 41 39 38 37 35 33 31 29 28 27 25 24 22 21 20 18 17 15 14 13 12 10 9 8 7 6 5 5 6 7 8 9 10 12 13 15 16 17 19 20 22 24 26 28 30 32 34 36 37 37 39 40 41 44 46 48 50 51 50 52 55 55 54 55 56 53 51 49 47 45 44 41 37 33 28 24 22 21 22 23 23 21 25 33
42 41 40 39 37 35 33 31 29 28 26 25 23 22 21 19 18 17 15 15 13 12 11 9 8 7 6 5 5 6 6 7 8 9 10 12 13 15 16 18 19 21 22 24 27 29 31 33 35 36 37 38 39 42 44 46 47 49 49 48 51 55 57 58 59 59 56 53 51 48 46 43 40 37 34 29 25 21 19 19 20 19 18 21 28
41 40 39 39 37 35 33 32 30 28 27 25 24 22 21 20 18 17 16 15 14 12 11 10 8 7 6 5 4 4 5 6 7 8 9 11 13 14 16 18 19 20 21 23 25 27 30 31 33 35 36 36 38 41 43 45 46 47 46 47 50 55 59 61 62 62 60 56 53 49 47 44 41 37 33 29 25 20 17 16 16 15 15 18 24
40 39 39 38 37 34 32 31 29 28 26 25 23 22 21 20 19 18 17 15 14 12 11 10 9 7 6 5 4 4 4 5 6 7 9 11 13 14 16 18 19 20 22 23 24 26 29 30 32 34 35 35 35 37 41 43 45 45 45 46 49 55 61 64 63 62 60 57 54 51 48 45 42 38 34 29 25 20 16 15 13 12 13 16 20
39 39 39 37 36 34 32 30 28 27 26 25 24 23 22 21 19 18 17 16 14 13 12 10 9 8 6 5 4 4 4 4 5 7 9 11 13 15 16 18 20 21 23 24 25 27 29 30 32 34 35 36 36 37 40 43 45 45 46 46 47 52 60 63 62 60 59 56 52 51 50 46 42 38 34 30 26 20 17 15 12 10 12 15 18
38 38 38 37 36 34 32 31 29 27 26 25 24 23 23 22 20 19 17 16 15 14 12 11 10 8 7 6 5 4 3 4 5 7 9 11 13 15 17 19 20 22 23 25 26 27 29 30 32 33 34 35 36 37 39 43 45 46 47 47 47 50 57 62 61 59 58 55 52 50 49 47 43 39 33 28 24 20 17 14 11 10 12 14 18
38 37 37 36 35 33 32 30 28 27 26 25 24 24 23 22 21 19 18 17 15 14 13 12 10 9 7 6 5 4 3 3 5 6 8 10 13 15 16 18 20 22 23 25 26 28 29 31 32 34 35 34 35 36 39 42 45 47 48 49 48 50 56 60 61 59 57 55 52 50 48 46 44 40 33 28 24 21 17 13 10 9 11 13 18
37 36 35 34 32 31 31 29 28 27 26 25 25 24 23 22 21 19 18 17 15 14 13 12 10 9 8 6 5 3 2 3 4 6 8 10 12 14 16 18 19 21 23 24 26 28 30 31 33 35 36 36 35 36 38 40 44 47 48 49 49 49 54 60 61 58 57 56 54 51 48 46 44 40 34 28 25 22 18 14 10 7 8 11 15
36 35 34 32 30 29 29 28 27 27 27 26 26 25 23 22 21 19 18 17 15 14 13 12 10 9 8 6 4 3 2 2 4 6 7 9 11 13 15 17 19 20 22 24 25 27 30 31 32 34 36 37 36 35 36 38 43 46 47 49 48 48 52 59 60 57 56 58 57 53 50 47 45 42 37 30 26 23 19 15 12 6 4 7 11
34 32 31 29 28 27 26 25 26 26 26 26 26 25 23 22 20 19 18 16 15 14 13 11 10 9 7 6 4 3 1 2 3 5 7 9 11 13 15 16 18 19 21 23 25 26 28 30 32 34 36 37 36 36 36 38 41 44 45 47 48 48 51 58 60 57 56 58 58 56 52 49 45 44 40 34 29 25 21 17 13 7 1 4 6
32 30 29 27 26 26 25 26 26 26 26 26 25 23 22 21 20 18 17 16 14 14 12 11 9 8 7 5 4 2 1 2 4 6 8 10 12 14 15 17 19 20 21 23 24 26 27 29 31 33 35 37 38 38 37 37 40 42 43 46 48 47 49 56 60 58 56 57 58 57 55 51 47 45 43 38 33 28 24 18 14 10 5 5 6
Wind_Direction
233 233 232 232 230 228 227 226 224 224 224 224 225 227 229 234 239 247 255 263 271 278 281 284 288 293 297 300 302 304 305 306 307 308 309 311 312 312 312 311 310 309 308 306 305 301 297 294 291 288 283 279 277 277 277 276 272 267 265 263 262 262 264 263 266 270 270 269 271 272 274 277 276 272 268 267 271 273 272 273 272 270 270 270 269
233 233 232 231 229 228 226 225 224 223 222 222 223 225 228 234 240 249 257 266 273 278 280 284 290 294 297 300 302 304 305 306 307 309 311 312 313 313 312 311 311 310 309 308 306 302 297 295 293 290 284 280 279 279 277 272 266 265 265 266 265 265 266 265 266 270 272 270 271 273 274 276 274 270 266 266 269 270 270 273 273 271 270 270 269
233 233 232 230 229 227 225 224 222 221 220 220 222 224 228 234 242 250 259 267 273 276 279 286 291 295 297 300 302 304 304 305 307 309 311 312 312 313 313 312 312 312 310 309 306 301 296 295 294 292 289 287 287 284 277 271 269 269 269 268 268 267 265 265 266 269 272 272 272 274 276 274 273 273 272 273 274 270 269 270 271 272 271 268 265
233 232 231 229 227 226 224 222 220 218 218 219 220 223 228 235 243 252 260 267 271 274 280 287 291 294 297 300 302 302 303 304 307 309 310 311 312 314 315 315 315 314 312 310 307 302 299 298 299 298 297 297 295 290 284 283 281 276 272 269 267 268 266 266 266 266 269 271 271 273 278 277 276 277 276 277 278 275 271 270 270 272 272 267 264
232 231 230 227 225 224 222 220 218 217 217 217 219 223 229 237 244 252 260 265 269 274 281 287 291 294 297 299 300 301 302 304 306 308 311 312 314 316 317 317 317 316 313 311 308 303 301 302 303 303 301 299 298 295 292 291 286 278 273 269 267 268 268 267 267 266 267 271 272 275 279 279 280 283 280 276 279 279 275 272 271 271 272 269 267
231 230 228 226 224 222 220 218 217 216 215 216 218 223 230 238 245 253 259 263 268 275 282 287 291 293 296 298 299 299 301 304 307 310 312 314 316 317 319 319 318 316 313 312 310 307 307 308 307 306 303 299 299 298 294 290 284 277 272 270 268 268 268 268 267 267 268 269 272 275 276 277 282 287 286 282 280 278 276 275 273 269 268 269 268
231 228 226 224 222 220 219 217 215 214 214 215 219 225 231 238 246 253 258 262 269 277 283 287 290 293 296 298 299 300 302 306 308 311 314 317 318 319 319 319 317 316 314 314 314 313 311 311 309 307 304 300 298 296 293 286 280 277 273 271 270 268 267 267 267 267 268 269 270 272 274 277 280 283 287 288 281 274 273 274 274 272 270 268 266
229 227 224 222 220 219 217 215 214 213 213 215 220 225 231 239 246 252 257 263 271 279 284 287 289 293 297 298 298 300 303 307 309 313 317 319 320 320 319 319 318 316 316 316 317 316 314 312 309 306 304 302 298 294 291 285 278 274 272 270 271 269 266 266 267 266 266 268 269 270 273 277 280 282 285 288 282 276 274 273 277 281 275 266 262
228 225 222 220 218 217 215 213 212 212 213 216 220 225 232 238 245 251 256 264 273 280 284 286 290 294 296 297 298 301 305 308 311 315 319 320 321 320 319 318 318 317 317 318 317 315 313 310 307 304 298 293 290 285 282 280 275 271 270 269 270 271 267 265 266 265 265 267 266 268 271 274 279 283 284 284 281 278 277 277 283 289 279 258 254
227 224 221 218 217 215 213 212 212 211 212 215 219 225 231 237 244 250 256 265 274 279 282 285 290 293 295 297 299 302 306 310 313 317 321 322 321 319 318 317 317 317 317 318 318 317 315 311 307 304 295 286 284 281 277 275 273 271 271 269 267 269 269 266 265 263 264 266 264 265 270 272 275 282 282 282 282 280 280 281 284 292 289 266 258
227 223 219 217 215 213 212 211 210 210 211 214 218 224 230 236 243 249 256 267 273 276 280 284 290 294 296 298 300 303 307 311 315 318 321 322 320 318 317 316 316 316 315 315 315 315 314 310 306 301 294 289 288 286 282 278 274 272 272 270 265 265 266 267 267 265 265 267 266 265 268 270 274 279 279 280 284 283 283 285 284 288 292 283 274
226 222 218 216 213 211 210 209 208 208 210 213 217 223 230 236 242 249 256 265 270 274 279 284 291 295 297 298 300 304 309 312 315 318 319 319 319 317 316 315 315 315 314 313 313 314 314 313 309 303 296 293 292 290 287 284 280 275 273 272 268 265 264 264 266 266 265 267 266 265 267 269 272 276 277 277 283 285 284 286 284 284 287 289 288
224 220 216 214 212 210 209 207 207 207 209 213 216 222 230 236 241 249 256 263 268 272 278 285 292 296 297 299 302 305 310 313 314 316 316 316 318 318 316 315 314 314 314 314 315 315 314 312 310 306 302 299 296 293 289 285 284 280 276 274 272 268 265 264 264 265 266 266 267 267 268 270 270 272 275 276 279 282 283 284 283 282 283 285 290
223 219 215 214 211 209 207 205 205 207 208 211 217 223 230 235 241 248 255 261 266 271 277 285 292 296 297 300 302 306 311 312 312 313 313 315 318 320 319 316 315 315 316 317 316 315 314 313 310 307 307 305 299 294 290 285 284 284 280 277 275 273 270 266 264 266 266 264 266 267 268 269 269 270 272 273 274 275 277 278 279 281 281 280 283
222 218 214 212 210 208 206 204 204 206 208 211 218 225 230 235 240 247 253 259 264 269 276 285 292 295 297 299 301 306 310 311 311 312 312 315 319 321 320 319 320 321 321 320 317 314 313 314 310 307 307 307 301 296 291 287 286 286 284 281 279 276 275 272 270 270 266 263 265 267 266 267 268 268 269 273 276 274 272 274 277 280 282 280 280
220 216 214 212 209 207 205 204 204 206 208 213 220 225 230 235 239 246 252 256 262 267 275 286 293 294 297 299 301 305 311 313 312 311 312 318 321 322 322 323 325 324 322 320 319 316 314 312 310 307 306 304 301 297 293 290 287 285 284 283 282 280 277 276 275 273 267 264 266 269 269 268 269 270 270 272 276 276 275 275 276 276 277 278 278
219 216 213 211 209 206 205 205 206 207 210 216 222 226 230 235 239 245 250 255 260 267 275 287 293 295 297 299 301 306 313 314 310 310 315 321 324 324 326 327 326 324 324 322 320 318 317 314 311 309 306 303 301 299 296 295 292 289 285 283 282 281 279 278 278 274 270 267 268 270 271 271 271 273 272 270 271 273 272 269 267 267 270 271 271
218 214 211 209 207 205 205 206 208 210 214 219 224 229 233 235 239 244 249 254 259 266 278 289 294 295 297 299 303 308 313 312 310 313 319 325 328 329 329 328 327 326 326 324 321 320 319 316 312 307 304 302 301 300 299 299 298 296 292 288 284 281 280 280 279 276 274 272 270 271 271 269 269 272 272 270 269 268 265 262 261 262 264 265 265
215 212 209 207 205 204 205 207 210 214 219 223 228 233 236 238 241 244 247 252 258 268 282 290 293 295 297 301 307 311 313 314 317 321 324 329 333 333 328 326 326 325 324 324 322 320 317 314 311 308 305 303 301 300 300 300 298 296 294 290 286 283 281 281 279 276 274 272 271 272 272 271 271 271 271 273 274 269 261 257 256 257 259 261 261
213 210 207 204 203 204 205 207 212 217 222 228 232 236 238 240 242 245 247 252 260 272 286 292 293 295 297 304 310 313 314 317 323 327 329 334 339 335 328 326 325 323 322 319 317 315 313 311 311 310 308 306 304 302 300 299 297 295 292 288 284 282 281 279 277 274 273 272 272 272 273 273 273 272 271 272 275 272 263 255 253 254 256 258 257
210 207 205 203 202 203 204 207 211 217 223 229 234 237 238 240 243 246 249 255 265 278 290 293 294 295 299 306 311 314 317 323 329 332 334 340 344 337 329 326 323 319 317 315 313 312 312 314 315 315 312 309 307 306 304 303 300 297 294 289 284 282 280 276 274 273 273 272 272 273 274 274 274 274 272 272 272 271 265 257 255 256 256 255 252
208 205 203 202 201 202 203 206 211 216 223 229 233 235 237 239 242 245 249 257 269 283 291 292 292 295 302 309 314 318 324 330 335 338 340 345 345 336 326 321 318 315 314 313 312 312 313 315 318 318 314 311 310 309 308 307 305 300 296 293 290 286 280 274 272 271 272 272 272 272 273 274 275 275 273 271 271 270 265 260 258 258 255 252 248
205 202 201 200 200 200 202 206 210 216 223 228 229 232 234 237 239 241 248 258 271 284 289 290 292 298 306 313 320 326 330 337 342 344 346 348 344 332 322 318 316 316 314 311 311 314 318 320 319 316 314 313 313 313 314 314 313 306 300 299 298 294 284 274 269 268 270 271 271 270 271 271 273 274 272 269 268 267 265 263 262 261 258 253 247
202 200 199 198 199 200 202 205 209 214 219 223 224 227 230 233 236 240 248 259 272 282 286 289 294 303 311 319 329 335 338 344 349 350 351 350 340 327 321 319 319 318 315 314 315 317 318 319 317 315 316 318 319 321 325 329 330 324 313 306 302 299 292 280 272 268 268 269 268 268 268 269 269 270 270 269 268 266 266 264 263 263 261 257 252
200 197 196 196 198 200 202 204 207 211 215 217 219 223 226 230 234 239 247 258 269 278 284 291 298 308 319 328 337 344 348 350 352 353 354 350 337 326 323 322 322 323 321 319 319 319 317 317 318 319 325 332 336 338 341 344 345 341 335 325 310 300 296 291 283 276 273 273 272 271 270 270 269 268 268 268 267 265 265 263 262 262 262 260 259
197 195 195 195 197 200 201 203 205 207 210 212 214 218 222 225 230 236 245 255 265 275 285 292 301 316 330 336 342 349 353 354 354 355 353 346 334 328 326 326 328 330 330 326 323 321 322 324 327 331 337 345 348 349 349 349 348 347 346 344 335 319 307 299 294 289 283 281 279 276 275 273 270 268 268 265 262 259 259 258 257 258 259 257 259
195 194 193 194 196 199 200 202 203 204 205 207 210 213 217 220 225 231 239 250 262 275 285 293 308 330 340 343 347 350 352 355 357 355 349 339 331 329 329 329 332 335 336 333 328 326 329 333 337 340 345 350 354 356 355 353 352 352 351 350 348 342 334 324 316 307 300 296 293 287 283 279 273 268 265 262 260 257 255 254 253 252 254 255 258
195 193 193 194 196 197 198 199 200 201 202 203 206 210 212 213 219 225 231 242 257 272 283 300 325 343 347 346 347 348 350 355 357 351 341 332 330 331 332 333 334 337 337 334 330 330 334 339 343 347 352 356 358 358 358 358 357 355 353 351 351 349 344 339 333 327 320 315 308 296 290 286 279 272 265 261 261 260 258 257 253 251 253 254 254
195 193 192 194 194 194 195 197 196 196 198 199 202 205 206 208 212 218 223 230 248 268 288 321 343 347 347 347 345 345 349 354 351 340 331 328 329 333 335 334 334 335 334 332 331 335 340 344 349 355 359 0 360 359 358 358 357 355 354 353 352 351 348 344 339 334 329 324 318 306 297 292 286 279 271 263 259 260 260 259 255 253 255 253 252
193 193 193 193 192 192 193 193 193 193 194 197 199 199 200 203 206 208 212 222 249 281 314 350 352 342 339 341 345 346 348 346 338 330 328 329 332 335 336 335 334 335 334 332 334 340 346 350 356 1 2 2 1 360 359 358 356 356 356 356 354 352 349 345 340 333 329 327 325 318 309 300 293 288 282 272 263 260 260 260 258 257 256 253 252
193 193 192 191 190 191 191 191 190 190 191 194 196 195 195 199 200 199 201 204 228 280 328 360 347 330 327 331 341 348 344 336 331 329 330 332 334 339 341 339 337 339 340 339 341 347 353 358 2 4 3 2 2 1 360 358 357 357 356 355 354 352 348 343 338 335 334 334 331 326 321 314 305 296 289 280 272 267 263 262 260 257 254 253 253
193 191 189 188 189 189 190 189 189 189 191 191 192 192 194 196 195 193 190 186 193 208 197 285 309 311 315 323 334 341 339 335 333 332 332 335 338 343 345 344 343 345 347 349 351 354 359 3 5 5 3 2 2 0 359 359 359 358 356 354 353 352 348 343 341 340 339 336 331 325 322 318 313 304 292 282 277 273 268 262 257 255 255 255 253
194 189 187 187 188 187 188 188 188 189 191 190 189 190 193 196 197 194 187 184 190 193 183 197 256 280 300 322 334 335 333 332 332 332 335 339 343 346 347 349 353 354 354 356 359 2 4 5 5 5 3 1 1 359 359 360 359 358 356 353 351 351 349 347 347 346 341 333 327 325 323 320 316 309 298 287 281 277 272 266 260 255 253 253 251
194 191 190 190 189 187 186 186 187 188 188 188 188 189 190 192 194 195 191 187 186 185 183 194 220 244 279 320 339 336 329 328 332 338 342 343 346 348 346 348 358 3 2 2 3 6 7 6 5 5 3 1 1 359 359 360 359 357 356 355 353 352 351 350 348 344 338 333 331 331 330 326 320 312 303 294 288 279 270 265 262 258 253 251 251
194 194 194 194 191 188 185 185 185 186 185 185 185 186 187 186 185 189 193 190 185 183 189 199 203 206 237 323 346 339 329 329 338 346 348 346 347 348 346 351 1 6 7 7 6 6 7 6 5 5 3 2 1 0 360 359 359 358 357 356 354 354 353 350 345 339 334 333 333 333 331 328 324 317 307 298 292 283 272 263 260 259 257 253 251
192 193 193 191 189 186 183 182 182 183 183 182 181 182 185 184 182 184 188 189 188 190 194 197 191 177 162 20 360 334 325 338 351 355 355 353 350 349 353 1 7 7 7 6 4 4 6 5 4 4 4 2 1 1 1 360 360 360 359 357 356 355 351 345 340 336 334 333 333 333 332 329 326 322 314 302 292 286 279 270 263 260 257 255 253
191 190 189 186 185 183 181 179 180 181 181 181 181 182 183 183 183 183 184 186 187 186 186 184 169 148 135 107 29 322 324 351 3 358 354 353 353 357 4 9 8 6 5 5 2 0 2 3 3 3 3 2 1 2 2 2 1 0 359 359 358 355 349 342 338 336 335 333 332 332 333 332 329 326 319 308 296 286 280 276 270 263 257 253 252
187 187 186 183 182 181 180 179 180 180 180 180 182 183 183 182 182 181 180 181 180 177 174 166 152 140 138 137 129 358 342 7 14 3 357 359 2 6 9 10 8 6 4 3 1 359 359 0 2 2 3 2 2 1 2 1 1 360 358 359 359 355 350 345 342 340 338 335 332 332 334 334 333 330 322 312 301 290 282 278 273 267 259 254 250
183 184 183 181 179 180 181 181 181 181 180 181 181 181 182 182 181 179 178 176 174 171 165 155 146 138 136 133 124 86 36 30 25 17 11 8 7 6 5 6 7 6 3 1 0 359 357 358 1 2 3 2 1 1 1 2 2 1 0 360 358 354 351 348 345 342 340 338 335 334 335 335 335 334 327 317 307 295 285 278 271 265 261 256 250
181 179 178 177 178 179 181 182 182 180 180 180 180 180 181 180 178 177 176 174 171 167 159 148 140 133 127 122 109 78 52 37 26 18 12 9 7 4 3 2 3 2 1 359 358 356 356 357 359 0 2 2 0 360 1 2 2 1 2 360 356 352 350 349 346 343 342 341 339 337 336 336 337 335 330 322 314 302 289 280 273 266 262 256 249
178 175 174 176 177 178 179 180 181 180 179 179 179 179 179 177 176 174 173 172 171 166 156 144 135 128 121 108 86 66 49 36 25 15 9 7 5 2 0 360 359 358 358 356 354 353 353 355 356 357 359 1 1 0 1 3 2 1 1 359 355 351 350 349 347 345 344 343 342 341 339 338 338 337 332 327 320 307 293 284 278 273 267 259 247
176 174 173 174 175 176 176 177 178 178 177 177 179 179 177 176 175 174 173 173 171 164 155 146 137 129 120 98 75 59 44 34 25 16 9 7 5 3 2 360 358 357 355 352 350 349 349 350 352 355 357 0 2 3 3 4 3 2 1 358 354 352 352 349 348 347 346 344 345 345 343 341 341 339 335 332 325 312 298 290 283 276 272 263 246
176 174 172 172 174 175 176 177 177 178 178 178 178 177 176 175 174 174 174 174 170 163 155 147 139 133 125 106 83 62 44 33 25 17 13 11 8 6 5 3 0 358 356 353 351 348 346 346 348 352 357 2 4 5 6 6 4 2 1 357 354 353 353 351 349 348 347 345 346 347 346 346 345 342 339 337 332 320 305 297 288 276 273 267 246
174 172 172 172 172 174 176 177 177 177 177 177 177 176 175 174 174 175 175 174 169 162 155 149 144 140 132 118 100 75 53 40 26 19 16 14 11 10 9 6 4 1 358 357 355 352 349 347 346 349 355 1 5 7 9 10 9 7 4 358 354 354 355 353 350 349 348 347 348 348 349 350 349 347 344 342 338 328 314 305 295 280 278 270 244
172 171 171 171 171 173 175 176 177 177 177 177 177 176 175 174 175 175 175 173 168 162 157 153 150 148 143 134 120 96 69 47 30 22 18 15 13 13 11 8 7 4 1 359 358 356 353 351 349 348 351 357 2 7 10 12 13 13 8 1 356 355 355 354 351 350 350 350 351 351 351 353 353 351 348 345 342 335 323 313 302 289 283 268 238
171 172 172 172 172 173 174 175 176 178 179 178 178 177 175 175 175 175 173 171 166 162 160 159 156 154 150 142 130 112 83 53 32 23 19 16 14 13 11 9 7 6 4 1 360 359 358 355 352 350 349 352 359 6 10 13 15 15 10 3 0 358 356 355 354 353 354 355 355 353 353 354 356 355 352 347 344 340 330 316 309 303 290 262 232
170 171 172 172 172 173 174 175 176 177 178 178 178 177 176 175 175 174 171 168 165 163 162 160 158 156 152 143 133 120 91 57 36 23 18 16 14 12 10 8 6 5 5 3 1 360 360 358 357 355 351 351 357 5 8 11 16 15 9 5 3 360 357 358 358 357 358 0 0 358 357 358 359 360 357 352 349 347 338 323 315 308 287 254 225
169 171 172 173 174 174 174 175 176 178 178 178 177 177 177 176 174 171 170 167 165 164 163 161 159 157 153 147 141 129 96 54 32 23 16 14 13 10 8 7 5 3 3 4 2 1 0 359 358 358 354 352 357 4 6 9 15 15 9 5 4 360 358 0 2 1 2 6 6 4 3 3 4 5 4 0 357 354 348 340 335 317 279 249 225
169 171 172 173 175 176 176 177 179 179 178 178 177 177 177 175 172 170 170 168 166 165 164 162 161 159 155 154 155 141 102 48 25 17 10 9 10 8 5 5 3 360 0 1 1 1 0 358 358 359 357 354 356 1 3 8 14 15 9 5 3 359 358 1 4 4 7 10 9 8 8 8 9 10 11 8 4 1 357 355 355 345 267 237 227
168 170 171 172 174 176 176 178 180 179 179 179 179 177 176 174 172 171 171 168 167 167 165 163 164 164 162 163 167 153 104 33 17 11 5 5 7 4 2 1 359 357 358 359 358 359 360 357 357 359 358 355 355 359 1 7 13 13 9 7 5 359 358 3 6 7 10 13 12 11 12 12 12 15 16 15 11 8 5 5 10 18 95 190 207
167 169 171 172 173 176 177 179 180 180 179 179 179 178 177 174 172 172 172 169 168 169 168 166 168 170 170 173 175 164 84 7 4 2 359 1 1 359 357 357 354 353 355 356 355 357 358 356 356 358 358 355 355 357 359 6 12 11 9 10 7 0 358 3 6 8 12 16 15 15 15 15 15 18 20 19 16 14 10 10 19 32 66 126 150